SCP
0 0 0 0 0 0 -0 -0 0 -0 -0 0 0 0 0 0 0 -0 -0 -0 0 0 0 0 0 0 0 0 0 0 0 -0 -0 -0 -0 -0 -0 -0 -0 -0 -0 -0 -0 -0 -0 -0 -0 -0 -0
0 0 0 0 0 -0 -0 0 -0 0 0 0 0 0 0 0 0 -0 0 0 -0 -0 0 0 0 0 -0 0 0 0 0 -0 -0 -0 -0 -0 -0 -0 -0 -0 -0 -0 -0 -0 -0 -0 -0 -0 -0
0 0 0 0 0 -0 -0 0 0 0 0 0 0 0 0 0 0 0 -0 -0 -0 -0 -0 -0 0 0 -0 -0 -0 -0 0 -0 -0 -0 -0 -0 -0 -0 -0 -0 -0 -0 -0 -0 -0 -0 -0 -0 -0
0 0 0 0 -0 0 0 0 0 0 0 0 0 0 0 0 0 0 -0 -0 -0 -0 -0 -0 -0 -0 -0 -0 -0 -0 -0 -0 -0 -0 -0 -0 -0 -0 -0 -0 -0 -0 -0 -0 -0 -0 -0 -0 -0
0 0 0 0 0 0 0 0 0 -0 0 0 0 0 0 0 0 -0 -0 -0 -0 -0 -0 -0 -0 -0 -0 -0 -0 -0 -0 -0 -0 -0 -0 -0 -0 -0 -0 -0 -0 -0 -0 -0 -0 -0 -0 -0 -0
0 0 0 0 0 0 0 0 0 0 0 0 0 -0 -0 0 -0 -0 -0 -0 -0 -0 -0 -0 0 0 -0 -0 -0 -0 -0 -0 -0 -0 -0 -0 -0 -0 -0 -0 -0 -0 -0 -0 -0 -0 -0 -0 -0
0 0 0 0 0 0 0 0 0 0 0 0 0 -0 0 -0 -0 -0 -0 -0 -0 -0 -0 -0 -0 0 0 -0 -0 -0 -0 -0 -0 -0 -0 -0 -0 -0 -0 -0 -0 -0 -0 -0 -0 -0 -0 -0 -0
0 0 0 0 0 0 0 0 0 0 0 0 0 0 -0 -0 -0 -0 -0 -0 -0 -0 -0 -0 -0 -0 -0 -0 -0 -0 -0 -0 -0 -0 -0 -0 -0 -0 -0 -0 -0 -0 -0 -0 -0 -0 0 -0 0
0 0 0 0 0 0 0 0 0 0 0 0 -0 0 0 -0 -0 -0 -0 -0 -0 -0 -0 -0 -0 -0 -0 -0 -0 -0 -0 -0 -0 -0 -0 -0 -0 -0 -0 -0 -0 -0 -0 -0 -0 -0 0 -0 0
0 0 0 0 0 0 0 0 0 0 0 0 0 0 0 -0 -0 -0 -0 -0 -0 -0 -0 -0 -0 -0 -0 -0 -0 -0 -0 -0 -0 -0 -0 -0 -0 0 0 0 0 -0 0 0 0 0 0 0 0
0 0 0 0 0 0 0 0 0 0 0 0 -0 -0 -0 -0 -0 -0 -0 -0 -0 -0 -0 -0 -0 -0 -0 -0 0 0 0 0 0 -0 -0 -0 0 -0 0 0 0 0 0 0 0 0 0 0 0
0 0 0 0 0 0 0 0 0 0 0 0 0 0 -0 -0 -0 -0 -0 -0 -0 -0 -0 -0 -0 -0 -0 -0 -0 0 0 0 0 0 0 0 0 0 0 0 0 0 0 0 0 0 0 0 0
0 0 0 0 0 0 0 0 0 0 0 0 0 0 -0 -0 -0 -0 -0 -0 -0 -0 -0 -0 -0 -0 -0 -0 -0 0 0 0 0 0 0 0 0 0 0 0 0 0 0 0 0 0 0 0 0
0 0 0 0 0 0 0 0 0 0 0 0 0 0 0 -0 -0 0 0 -0 -0 -0 -0 -0 -0 -0 -0 -0 -0 -0 0 0 0 0 0 0 0 0 0 0 0 0 0 0 0 0 0 0 0
0 0 0 0 0 0 0 0 0 0 0 0 0 0 0 0 0 0 0 -0 -0 0 -0 -0 -0 -0 -0 -0 -0 -0 0 0 0 0 0 0 0 0 0 0 0 0 0 0 0 0 0 0 0
0 0 0 0 0 0 0 0 0 0 0 0 0 0 0 0 0 0 0 0 0 0 0 0 0 -0 0 0 0 0 0 0 0 0 0 0 0 0 0 0 0 0 0 0 0 0 0 0 0
0 0 0 0 0 0 0 0 0 0 0 0 0 0 0 0 0 0 0 0 0 0 0 0 0 0 0 0 0 0 0 0 0 0 0 0 0 0 0 0 0 0 0 0 0 0 0 0 0
0 0 0 0 0 0 0 0 0 0 0 0 0 0 0 0 0 0 0 0 0 0 0 0 0 0 0 0 0 0 0 0 0 0 0 0 0 0 0 0 0 0 0 0 0 0 0 0 0
0 0 0 0 0 0 0 0 0 0 0 0 0 0 0 0 0 0 0 0 0 0 0 0 0 0 0 0 0 0 0 0 0 0 0 0 0 0 0 0 0 0 0 0 0 0 0 0 0
0 0 0 0 0 0 0 0 0 0 0 0 0 0 0 0 0 0 0 0 0 0 0 0 0 0 0 0 0 0 0 0 0 0 0 0 0 0 0 0 0 0 0 0 0 0 0 0 0
0 0 0 0 0 0 0 0 0 0 0 0 0 0 0 0 0 0 0 0 0 0 0 0 0 0 0 0 0 0 0 0 0 0 0 0 0 0 0 0 0 0 0 0 0 0 0 0 0
0 0 0 0 0 0 0 0 0 0 0 0 0 0 0 0 0 0 0 0 0 0 0 0 0 0 0 0 0 0 0 0 0 0 0 0 0 0 0 0 0 0 0 0 0 0 0 0 0
0 0 0 0 0 0 0 0 0 0 0 0 0 0 0 0 0 0 0 0 0 0 0 0 0 0 0 0 0 0 0 0 0 0 0 0 0 0 0 0 0 0 0 0 0 0 0 0 0
0 0 0 0 0 0 0 0 0 0 0 0 0 0 0 0 0 0 0 0 0 0 0 0 0 0 0 0 0 0 0 0 0 0 0 0 0 0 0 0 0 0 0 0 0 0 0 0 0
0 0 0 0 0 0 0 0 0 0 0 0 0 0 0 0 0 0 0 0 0 0 0 0 0 0 0 0 0 0 0 0 0 0 0 0 0 0 0 0 0 0 0 0 0 0 0 0 0
0 0 0 0 0 0 0 0 0 0 0 0 0 0 0 0 0 0 0 0 0 0 0 0 0 0 0 0 0 0 0 0 0 0 0 0 0 0 0 0 0 0 0 0 0 0 0 0 0
0 0 0 0 0 0 0 0 0 0 0 0 0 0 0 0 0 0 0 0 0 0 0 0 0 0 0 0 0 0 0 0 0 0 0 0 0 0 0 0 0 0 0 0 0 0 0 0 0
0 0 0 0 0 0 0 0 0 0 0 0 0 0 0 0 0 0 0 0 0 0 0 0 0 0 0 0 0 0 0 0 0 0 0 0 0 0 0 0 0 0 0 0 0 0 0 0 0
0 0 0 0 0 0 0 0 0 0 0 0 0 0 0 0 0 0 0 0 0 0 0 0 0 0 0 0 0 0 0 0 0 0 0 0 0 0 0 0 0 0 0 0 0 0 0 0 0
0 0 0 0 0 0 0 0 0 0 0 0 0 0 0 0 0 0 0 0 0 0 0 0 0 0 0 0 0 0 0 0 0 0 0 0 0 0 0 0 0 0 0 0 0 0 0 0 0
Wind_Speed_500mb
9 7 3 3 7 5 8 8 0 13 14 6 20 6 5 5 3 6 18 36 38 36 31 27 19 17 18 19 22 25 24 14 20 23 26 30 33 30 38 33 27 30 31 30 26 24 22 21 21
10 10 7 2 6 8 11 9 15 15 14 16 13 7 4 5 2 6 32 38 38 38 32 28 22 19 19 19 22 24 25 14 20 25 27 28 29 29 32 33 28 32 31 30 28 26 24 22 20
13 15 9 5 3 8 7 14 18 13 21 12 10 5 1 3 3 23 33 46 42 37 32 28 23 20 19 19 21 24 25 13 15 21 25 25 25 25 36 32 26 34 31 33 34 30 30 30 29
12 7 5 9 9 3 3 17 16 27 6 7 4 7 2 6 9 17 47 49 44 35 31 28 24 21 19 18 21 24 22 13 12 19 22 22 22 26 33 30 25 26 32 29 34 31 37 34 35
13 4 7 4 7 2 3 14 25 24 15 13 10 6 4 8 18 26 42 48 42 35 33 29 25 23 21 19 19 20 19 13 12 16 18 19 19 19 23 32 25 24 25 27 29 31 31 28 25
6 4 11 12 8 4 5 17 21 15 11 10 9 9 7 15 24 34 37 44 38 37 34 31 28 25 22 20 19 18 16 12 11 13 14 15 15 13 17 23 24 25 23 27 26 27 24 25 24
5 5 8 10 12 8 9 21 18 15 13 11 5 9 7 24 28 34 37 38 37 37 35 33 30 28 25 22 20 19 16 13 11 10 11 11 11 11 14 19 22 21 22 24 25 22 22 22 20
6 5 10 7 14 9 16 17 8 13 11 9 11 7 8 29 33 34 39 39 37 39 36 34 32 30 28 26 22 19 16 13 12 9 9 9 9 11 13 14 18 19 21 22 23 21 20 18 15
9 5 11 13 15 12 21 15 11 11 8 10 13 3 8 34 37 40 45 44 44 43 40 38 36 32 29 27 25 21 18 14 12 10 9 8 9 11 13 13 15 17 19 19 18 17 16 13 10
7 6 10 5 10 10 21 12 21 13 12 12 12 18 14 38 40 47 53 52 50 49 47 44 40 37 33 31 28 25 22 18 15 12 10 10 10 12 13 13 13 14 16 16 15 13 12 10 9
5 9 13 12 7 9 20 13 14 13 12 19 24 25 23 40 42 45 49 51 53 49 50 50 45 41 38 35 33 30 27 23 19 15 12 10 11 14 15 14 15 14 14 13 12 11 9 8 8
13 3 10 16 13 12 18 14 12 21 6 6 22 19 28 38 43 43 46 46 49 50 48 48 48 45 42 40 37 34 31 27 23 20 15 11 13 15 16 14 14 14 11 11 8 5 5 5 5
4 13 7 13 19 15 18 8 5 19 20 16 12 18 30 36 40 40 40 40 42 47 44 48 46 47 47 46 42 39 35 31 28 25 21 17 18 17 18 16 15 14 12 10 6 2 1 1 2
9 13 13 10 9 8 10 8 5 12 21 25 30 28 30 37 41 38 45 47 47 45 45 42 45 40 45 46 47 44 39 35 34 31 28 25 24 23 20 18 17 17 15 13 10 8 6 8 9
19 12 7 7 8 4 6 9 14 16 16 18 20 25 33 37 42 50 44 48 48 48 47 49 46 45 41 44 46 46 43 38 39 35 35 32 31 29 27 23 18 18 18 17 17 16 15 17 18
8 6 12 4 8 4 11 27 10 15 18 24 27 23 35 40 41 47 49 50 51 53 55 52 52 52 50 46 44 46 44 43 45 44 41 40 38 36 34 33 27 22 22 25 26 24 23 24 24
3 10 12 8 5 1 13 11 7 13 9 11 19 24 35 37 46 47 49 53 54 55 58 57 58 58 57 55 51 49 49 48 47 48 45 45 46 43 41 39 37 32 35 32 35 32 33 32 31
14 10 7 14 6 4 9 23 15 13 12 17 20 23 25 37 48 41 46 51 55 58 61 62 65 64 63 61 61 59 60 56 56 54 52 46 42 47 48 48 46 47 48 44 46 45 44 42 41
13 10 12 4 5 7 17 22 32 24 23 31 34 36 37 38 30 35 36 42 51 61 63 66 70 70 72 74 74 73 71 64 62 61 58 56 49 45 50 50 54 57 57 61 53 55 55 55 54
16 13 9 4 2 4 7 23 29 34 23 34 39 40 41 40 45 45 42 43 47 51 57 67 73 73 76 79 77 77 74 72 66 62 64 67 61 56 55 56 56 59 68 66 68 68 67 68 63
12 21 11 3 4 3 12 27 18 13 16 25 44 56 44 44 50 48 49 50 52 57 61 63 68 74 78 78 79 79 78 77 76 74 70 71 70 67 66 65 68 69 73 75 71 74 79 79 73
17 17 11 13 6 11 2 15 10 10 17 20 34 27 28 29 34 43 47 48 51 51 52 66 73 72 77 78 78 80 80 81 80 76 69 69 68 68 69 71 73 74 77 82 80 82 85 85 84
6 14 13 5 9 4 10 11 7 4 17 24 17 14 14 18 21 24 27 34 41 44 51 46 49 62 73 79 82 78 77 77 73 68 69 67 61 64 59 59 67 67 72 71 83 95 91 94 93
26 19 14 7 3 12 16 16 16 12 22 7 5 13 13 11 14 11 11 14 21 27 28 34 42 47 54 67 71 72 72 73 72 71 65 57 57 52 55 54 63 63 64 80 73 81 79 90 90
9 26 6 6 8 11 0 12 26 16 19 8 12 10 5 8 8 6 4 6 7 12 16 20 26 32 37 48 57 61 63 64 70 69 64 61 54 53 50 49 53 59 62 71 65 72 64 59 63
32 28 13 15 11 5 2 19 11 15 12 13 19 15 13 14 12 10 8 7 8 7 8 10 13 19 26 36 46 50 54 61 61 59 56 53 49 47 46 48 51 53 63 45 46 55 58 60 65
17 21 8 14 2 3 11 14 20 24 19 24 24 19 16 16 20 16 11 7 7 7 9 10 12 16 23 31 38 44 46 51 53 50 47 44 44 43 48 44 38 39 41 49 55 60 63 63 62
22 25 9 9 13 13 17 15 23 5 20 15 18 21 20 19 18 15 11 10 9 9 9 9 10 12 16 20 25 30 35 38 40 39 38 35 33 32 36 39 43 49 47 50 52 54 56 57 58
13 14 10 8 10 12 11 17 11 30 18 27 20 17 19 23 21 19 19 16 15 13 11 10 11 11 12 14 17 20 22 26 28 28 27 27 26 27 28 28 29 31 34 38 42 43 45 48 49
23 30 35 16 19 13 6 23 5 7 10 24 24 22 20 19 18 18 16 15 13 13 14 15 16 16 17 18 19 21 21 21 21 21 20 19 18 18 20 24 29 33 35 37 39 40 40 43 45
Wind_Direction_500mb
245 226 206 337 230 249 135 139 98 135 149 130 150 181 190 354 330 32 155 163 166 167 157 150 138 125 115 110 109 119 111 89 68 71 83 89 98 96 101 94 91 86 88 94 104 106 105 108 110
205 180 161 114 241 204 145 149 176 133 127 132 150 133 195 92 122 139 153 158 162 168 158 153 143 134 121 117 114 122 115 89 75 75 82 87 98 97 96 99 92 91 85 87 96 101 102 102 104
178 167 183 209 219 204 161 176 146 119 130 152 152 192 341 59 155 149 163 157 159 164 162 155 147 138 127 122 115 118 116 119 76 72 76 83 97 96 90 101 100 93 89 86 85 90 93 94 95
160 143 92 228 186 134 59 154 153 138 150 161 167 154 109 173 150 163 165 164 159 159 160 157 152 145 137 131 124 126 117 130 87 72 73 81 91 100 104 98 90 99 97 98 94 92 93 93 92
165 188 164 178 159 140 150 150 165 159 152 163 181 139 133 189 169 161 167 170 167 163 163 164 161 158 151 144 135 136 131 124 95 74 70 80 92 95 97 115 113 107 105 100 101 99 101 100 92
169 220 181 186 152 141 140 164 161 166 149 156 189 151 142 176 167 162 168 171 174 173 170 171 168 166 161 157 150 145 140 127 101 80 70 77 90 93 86 109 113 112 105 102 104 106 94 93 85
215 194 144 141 141 161 159 164 176 170 162 181 172 177 154 169 173 171 170 174 178 181 178 178 176 173 170 168 163 157 154 142 122 100 87 86 93 96 94 111 122 106 110 104 106 101 98 91 83
182 115 138 155 170 132 148 166 182 175 169 176 181 198 163 180 179 176 175 178 185 187 186 185 184 181 179 176 175 169 162 154 133 125 109 107 107 104 104 108 118 106 105 104 104 99 90 85 79
170 181 164 158 168 142 160 175 166 167 142 178 198 195 181 177 176 178 182 185 190 194 194 194 193 190 189 186 185 184 176 169 161 151 138 136 135 132 125 123 120 120 116 112 103 98 92 89 81
204 191 158 152 151 154 173 183 156 168 164 210 212 220 191 186 185 186 189 191 196 198 198 201 200 200 199 197 195 195 191 190 183 175 165 164 160 155 151 142 133 127 122 118 110 102 97 99 100
195 190 159 165 155 148 170 190 168 175 194 214 218 204 202 190 193 200 200 203 203 203 205 206 204 207 208 206 205 206 203 201 196 191 182 179 177 170 169 161 154 146 137 135 127 117 111 106 101
150 134 164 147 155 146 168 156 189 204 177 179 217 209 216 201 203 207 209 208 209 208 211 210 210 211 214 215 214 216 215 212 210 203 195 187 181 181 182 182 175 170 164 157 150 132 113 86 87
127 146 122 139 142 132 149 170 238 234 220 219 199 225 225 220 219 215 213 213 210 214 212 213 216 217 216 221 219 220 222 220 219 216 207 197 186 185 189 191 193 193 193 189 191 193 271 341 355
128 124 137 144 138 128 178 171 182 244 228 233 245 239 234 226 225 219 217 216 216 214 218 215 217 218 220 222 226 226 226 228 227 224 219 211 204 198 195 198 203 208 215 220 227 237 255 272 275
134 116 140 141 159 138 157 227 221 228 225 230 250 240 235 234 226 228 230 225 221 221 220 224 222 222 221 222 228 227 229 226 233 235 229 223 219 215 212 213 216 224 232 240 247 256 259 264 271
115 138 183 136 176 179 194 244 215 230 237 244 244 242 239 235 234 233 230 231 228 225 226 226 228 228 228 224 226 227 228 224 227 231 235 234 231 229 225 225 228 243 253 256 260 258 260 269 273
42 189 196 169 195 152 228 238 174 214 214 239 252 251 244 245 239 236 231 231 232 232 232 230 232 232 233 233 230 230 233 230 229 231 232 232 233 236 237 237 237 240 253 254 262 263 265 270 270
172 184 207 206 140 203 230 251 235 209 232 248 254 260 257 246 244 243 239 234 234 237 235 236 237 237 238 239 238 236 235 234 234 233 235 239 234 234 240 243 244 242 247 251 256 258 260 256 258
148 174 182 135 114 216 241 262 270 258 259 261 252 248 251 253 252 242 237 235 238 241 240 238 237 237 237 236 237 239 240 238 236 236 238 239 237 238 241 245 247 248 250 249 253 254 252 252 250
167 170 169 110 96 233 291 274 267 266 245 242 253 255 246 247 250 247 243 240 241 244 244 241 240 240 239 240 240 242 245 246 245 242 239 240 239 240 244 249 256 257 255 253 253 251 251 249 248
195 211 182 183 133 84 310 276 242 246 238 247 246 250 253 248 249 249 250 248 247 245 245 244 242 242 240 240 240 240 244 248 249 246 244 241 243 244 245 248 250 253 258 257 258 257 256 254 254
209 204 189 147 184 252 337 284 251 251 265 243 250 245 249 251 247 248 249 248 246 246 245 245 239 240 241 238 234 234 231 236 242 247 250 248 250 247 248 252 254 260 260 260 261 259 260 255 254
196 153 158 113 206 271 189 258 260 334 270 251 232 200 212 223 231 243 251 247 240 244 240 237 235 238 239 238 237 235 235 239 241 247 246 255 252 255 254 257 260 264 271 269 265 261 265 257 251
141 108 80 81 188 250 221 230 252 207 234 277 177 149 183 212 217 228 228 226 224 232 236 238 236 243 242 236 234 233 237 237 233 242 245 249 252 253 257 259 260 266 276 274 274 277 276 269 266
171 159 136 205 211 253 329 215 261 233 235 241 165 192 237 215 200 191 159 144 179 210 223 228 232 238 237 232 229 230 229 234 235 239 243 246 252 256 262 266 267 272 280 274 277 278 281 279 279
185 186 181 194 197 208 125 232 247 250 254 249 248 255 250 218 203 195 190 175 167 184 202 210 232 238 234 229 228 229 225 228 233 237 241 247 251 256 258 261 265 269 271 275 272 275 277 278 280
180 211 176 108 44 233 214 260 271 253 250 239 241 241 232 224 207 212 213 210 221 221 221 214 208 215 221 222 222 223 225 224 229 234 238 242 244 246 252 253 262 260 264 270 274 273 276 277 276
198 143 164 221 195 229 235 260 238 165 222 220 219 219 215 214 209 208 215 231 242 255 254 245 232 221 213 210 213 213 213 217 223 226 227 229 240 249 256 263 269 272 272 271 272 274 276 274 274
163 184 197 194 209 219 250 248 210 223 208 208 189 196 193 192 192 199 208 212 222 228 230 232 229 221 212 201 199 197 200 203 206 211 225 230 239 250 256 262 269 274 277 278 276 278 278 277 276
224 208 192 196 201 232 269 255 130 232 223 187 187 188 184 184 183 188 194 201 206 212 214 210 210 208 199 190 186 187 185 185 188 188 198 206 220 239 260 271 274 275 275 275 277 278 276 276 276
Wind_Speed_850mb
9 7 3 3 7 5 8 8 0 13 14 6 20 6 5 5 3 6 18 36 38 36 31 27 19 17 18 19 22 25 24 14 20 23 26 30 33 30 38 33 27 30 31 30 26 24 22 21 21
10 10 7 2 6 8 11 9 15 15 14 16 13 7 4 5 2 6 32 38 38 38 32 28 22 19 19 19 22 24 25 14 20 25 27 28 29 29 32 33 28 32 31 30 28 26 24 22 20
13 15 9 5 3 8 7 14 18 13 21 12 10 5 1 3 3 23 33 46 42 37 32 28 23 20 19 19 21 24 25 13 15 21 25 25 25 25 36 32 26 34 31 33 34 30 30 30 29
12 7 5 9 9 3 3 17 16 27 6 7 4 7 2 6 9 17 47 49 44 35 31 28 24 21 19 18 21 24 22 13 12 19 22 22 22 26 33 30 25 26 32 29 34 31 37 34 35
13 4 7 4 7 2 3 14 25 24 15 13 10 6 4 8 18 26 42 48 42 35 33 29 25 23 21 19 19 20 19 13 12 16 18 19 19 19 23 32 25 24 25 27 29 31 31 28 25
6 4 11 12 8 4 5 17 21 15 11 10 9 9 7 15 24 34 37 44 38 37 34 31 28 25 22 20 19 18 16 12 11 13 14 15 15 13 17 23 24 25 23 27 26 27 24 25 24
5 5 8 10 12 8 9 21 18 15 13 11 5 9 7 24 28 34 37 38 37 37 35 33 30 28 25 22 20 19 16 13 11 10 11 11 11 11 14 19 22 21 22 24 25 22 22 22 20
6 5 10 7 14 9 16 17 8 13 11 9 11 7 8 29 33 34 39 39 37 39 36 34 32 30 28 26 22 19 16 13 12 9 9 9 9 11 13 14 18 19 21 22 23 21 20 18 15
9 5 11 13 15 12 21 15 11 11 8 10 13 3 8 34 37 40 45 44 44 43 40 38 36 32 29 27 25 21 18 14 12 10 9 8 9 11 13 13 15 17 19 19 18 17 16 13 10
7 6 10 5 10 10 21 12 21 13 12 12 12 18 14 38 40 47 53 52 50 49 47 44 40 37 33 31 28 25 22 18 15 12 10 10 10 12 13 13 13 14 16 16 15 13 12 10 9
5 9 13 12 7 9 20 13 14 13 12 19 24 25 23 40 42 45 49 51 53 49 50 50 45 41 38 35 33 30 27 23 19 15 12 10 11 14 15 14 15 14 14 13 12 11 9 8 8
13 3 10 16 13 12 18 14 12 21 6 6 22 19 28 38 43 43 46 46 49 50 48 48 48 45 42 40 37 34 31 27 23 20 15 11 13 15 16 14 14 14 11 11 8 5 5 5 5
4 13 7 13 19 15 18 8 5 19 20 16 12 18 30 36 40 40 40 40 42 47 44 48 46 47 47 46 42 39 35 31 28 25 21 17 18 17 18 16 15 14 12 10 6 2 1 1 2
9 13 13 10 9 8 10 8 5 12 21 25 30 28 30 37 41 38 45 47 47 45 45 42 45 40 45 46 47 44 39 35 34 31 28 25 24 23 20 18 17 17 15 13 10 8 6 8 9
19 12 7 7 8 4 6 9 14 16 16 18 20 25 33 37 42 50 44 48 48 48 47 49 46 45 41 44 46 46 43 38 39 35 35 32 31 29 27 23 18 18 18 17 17 16 15 17 18
8 6 12 4 8 4 11 27 10 15 18 24 27 23 35 40 41 47 49 50 51 53 55 52 52 52 50 46 44 46 44 43 45 44 41 40 38 36 34 33 27 22 22 25 26 24 23 24 24
3 10 12 8 5 1 13 11 7 13 9 11 19 24 35 37 46 47 49 53 54 55 58 57 58 58 57 55 51 49 49 48 47 48 45 45 46 43 41 39 37 32 35 32 35 32 33 32 31
14 10 7 14 6 4 9 23 15 13 12 17 20 23 25 37 48 41 46 51 55 58 61 62 65 64 63 61 61 59 60 56 56 54 52 46 42 47 48 48 46 47 48 44 46 45 44 42 41
13 10 12 4 5 7 17 22 32 24 23 31 34 36 37 38 30 35 36 42 51 61 63 66 70 70 72 74 74 73 71 64 62 61 58 56 49 45 50 50 54 57 57 61 53 55 55 55 54
16 13 9 4 2 4 7 23 29 34 23 34 39 40 41 40 45 45 42 43 47 51 57 67 73 73 76 79 77 77 74 72 66 62 64 67 61 56 55 56 56 59 68 66 68 68 67 68 63
12 21 11 3 4 3 12 27 18 13 16 25 44 56 44 44 50 48 49 50 52 57 61 63 68 74 78 78 79 79 78 77 76 74 70 71 70 67 66 65 68 69 73 75 71 74 79 79 73
17 17 11 13 6 11 2 15 10 10 17 20 34 27 28 29 34 43 47 48 51 51 52 66 73 72 77 78 78 80 80 81 80 76 69 69 68 68 69 71 73 74 77 82 80 82 85 85 84
6 14 13 5 9 4 10 11 7 4 17 24 17 14 14 18 21 24 27 34 41 44 51 46 49 62 73 79 82 78 77 77 73 68 69 67 61 64 59 59 67 67 72 71 83 95 91 94 93
26 19 14 7 3 12 16 16 16 12 22 7 5 13 13 11 14 11 11 14 21 27 28 34 42 47 54 67 71 72 72 73 72 71 65 57 57 52 55 54 63 63 64 80 73 81 79 90 90
9 26 6 6 8 11 0 12 26 16 19 8 12 10 5 8 8 6 4 6 7 12 16 20 26 32 37 48 57 61 63 64 70 69 64 61 54 53 50 49 53 59 62 71 65 72 64 59 63
32 28 13 15 11 5 2 19 11 15 12 13 19 15 13 14 12 10 8 7 8 7 8 10 13 19 26 36 46 50 54 61 61 59 56 53 49 47 46 48 51 53 63 45 46 55 58 60 65
17 21 8 14 2 3 11 14 20 24 19 24 24 19 16 16 20 16 11 7 7 7 9 10 12 16 23 31 38 44 46 51 53 50 47 44 44 43 48 44 38 39 41 49 55 60 63 63 62
22 25 9 9 13 13 17 15 23 5 20 15 18 21 20 19 18 15 11 10 9 9 9 9 10 12 16 20 25 30 35 38 40 39 38 35 33 32 36 39 43 49 47 50 52 54 56 57 58
13 14 10 8 10 12 11 17 11 30 18 27 20 17 19 23 21 19 19 16 15 13 11 10 11 11 12 14 17 20 22 26 28 28 27 27 26 27 28 28 29 31 34 38 42 43 45 48 49
23 30 35 16 19 13 6 23 5 7 10 24 24 22 20 19 18 18 16 15 13 13 14 15 16 16 17 18 19 21 21 21 21 21 20 19 18 18 20 24 29 33 35 37 39 40 40 43 45
Wind_Direction_850mb
245 226 206 337 230 249 135 139 98 135 149 130 150 181 190 354 330 32 155 163 166 167 157 150 138 125 115 110 109 119 111 89 68 71 83 89 98 96 101 94 91 86 88 94 104 106 105 108 110
205 180 161 114 241 204 145 149 176 133 127 132 150 133 195 92 122 139 153 158 162 168 158 153 143 134 121 117 114 122 115 89 75 75 82 87 98 97 96 99 92 91 85 87 96 101 102 102 104
178 167 183 209 219 204 161 176 146 119 130 152 152 192 341 59 155 149 163 157 159 164 162 155 147 138 127 122 115 118 116 119 76 72 76 83 97 96 90 101 100 93 89 86 85 90 93 94 95
160 143 92 228 186 134 59 154 153 138 150 161 167 154 109 173 150 163 165 164 159 159 160 157 152 145 137 131 124 126 117 130 87 72 73 81 91 100 104 98 90 99 97 98 94 92 93 93 92
165 188 164 178 159 140 150 150 165 159 152 163 181 139 133 189 169 161 167 170 167 163 163 164 161 158 151 144 135 136 131 124 95 74 70 80 92 95 97 115 113 107 105 100 101 99 101 100 92
169 220 181 186 152 141 140 164 161 166 149 156 189 151 142 176 167 162 168 171 174 173 170 171 168 166 161 157 150 145 140 127 101 80 70 77 90 93 86 109 113 112 105 102 104 106 94 93 85
215 194 144 141 141 161 159 164 176 170 162 181 172 177 154 169 173 171 170 174 178 181 178 178 176 173 170 168 163 157 154 142 122 100 87 86 93 96 94 111 122 106 110 104 106 101 98 91 83
182 115 138 155 170 132 148 166 182 175 169 176 181 198 163 180 179 176 175 178 185 187 186 185 184 181 179 176 175 169 162 154 133 125 109 107 107 104 104 108 118 106 105 104 104 99 90 85 79
170 181 164 158 168 142 160 175 166 167 142 178 198 195 181 177 176 178 182 185 190 194 194 194 193 190 189 186 185 184 176 169 161 151 138 136 135 132 125 123 120 120 116 112 103 98 92 89 81
204 191 158 152 151 154 173 183 156 168 164 210 212 220 191 186 185 186 189 191 196 198 198 201 200 200 199 197 195 195 191 190 183 175 165 164 160 155 151 142 133 127 122 118 110 102 97 99 100
195 190 159 165 155 148 170 190 168 175 194 214 218 204 202 190 193 200 200 203 203 203 205 206 204 207 208 206 205 206 203 201 196 191 182 179 177 170 169 161 154 146 137 135 127 117 111 106 101
150 134 164 147 155 146 168 156 189 204 177 179 217 209 216 201 203 207 209 208 209 208 211 210 210 211 214 215 214 216 215 212 210 203 195 187 181 181 182 182 175 170 164 157 150 132 113 86 87
127 146 122 139 142 132 149 170 238 234 220 219 199 225 225 220 219 215 213 213 210 214 212 213 216 217 216 221 219 220 222 220 219 216 207 197 186 185 189 191 193 193 193 189 191 193 271 341 355
128 124 137 144 138 128 178 171 182 244 228 233 245 239 234 226 225 219 217 216 216 214 218 215 217 218 220 222 226 226 226 228 227 224 219 211 204 198 195 198 203 208 215 220 227 237 255 272 275
134 116 140 141 159 138 157 227 221 228 225 230 250 240 235 234 226 228 230 225 221 221 220 224 222 222 221 222 228 227 229 226 233 235 229 223 219 215 212 213 216 224 232 240 247 256 259 264 271
115 138 183 136 176 179 194 244 215 230 237 244 244 242 239 235 234 233 230 231 228 225 226 226 228 228 228 224 226 227 228 224 227 231 235 234 231 229 225 225 228 243 253 256 260 258 260 269 273
42 189 196 169 195 152 228 238 174 214 214 239 252 251 244 245 239 236 231 231 232 232 232 230 232 232 233 233 230 230 233 230 229 231 232 232 233 236 237 237 237 240 253 254 262 263 265 270 270
172 184 207 206 140 203 230 251 235 209 232 248 254 260 257 246 244 243 239 234 234 237 235 236 237 237 238 239 238 236 235 234 234 233 235 239 234 234 240 243 244 242 247 251 256 258 260 256 258
148 174 182 135 114 216 241 262 270 258 259 261 252 248 251 253 252 242 237 235 238 241 240 238 237 237 237 236 237 239 240 238 236 236 238 239 237 238 241 245 247 248 250 249 253 254 252 252 250
167 170 169 110 96 233 291 274 267 266 245 242 253 255 246 247 250 247 243 240 241 244 244 241 240 240 239 240 240 242 245 246 245 242 239 240 239 240 244 249 256 257 255 253 253 251 251 249 248
195 211 182 183 133 84 310 276 242 246 238 247 246 250 253 248 249 249 250 248 247 245 245 244 242 242 240 240 240 240 244 248 249 246 244 241 243 244 245 248 250 253 258 257 258 257 256 254 254
209 204 189 147 184 252 337 284 251 251 265 243 250 245 249 251 247 248 249 248 246 246 245 245 239 240 241 238 234 234 231 236 242 247 250 248 250 247 248 252 254 260 260 260 261 259 260 255 254
196 153 158 113 206 271 189 258 260 334 270 251 232 200 212 223 231 243 251 247 240 244 240 237 235 238 239 238 237 235 235 239 241 247 246 255 252 255 254 257 260 264 271 269 265 261 265 257 251
141 108 80 81 188 250 221 230 252 207 234 277 177 149 183 212 217 228 228 226 224 232 236 238 236 243 242 236 234 233 237 237 233 242 245 249 252 253 257 259 260 266 276 274 274 277 276 269 266
171 159 136 205 211 253 329 215 261 233 235 241 165 192 237 215 200 191 159 144 179 210 223 228 232 238 237 232 229 230 229 234 235 239 243 246 252 256 262 266 267 272 280 274 277 278 281 279 279
185 186 181 194 197 208 125 232 247 250 254 249 248 255 250 218 203 195 190 175 167 184 202 210 232 238 234 229 228 229 225 228 233 237 241 247 251 256 258 261 265 269 271 275 272 275 277 278 280
180 211 176 108 44 233 214 260 271 253 250 239 241 241 232 224 207 212 213 210 221 221 221 214 208 215 221 222 222 223 225 224 229 234 238 242 244 246 252 253 262 260 264 270 274 273 276 277 276
198 143 164 221 195 229 235 260 238 165 222 220 219 219 215 214 209 208 215 231 242 255 254 245 232 221 213 210 213 213 213 217 223 226 227 229 240 249 256 263 269 272 272 271 272 274 276 274 274
163 184 197 194 209 219 250 248 210 223 208 208 189 196 193 192 192 199 208 212 222 228 230 232 229 221 212 201 199 197 200 203 206 211 225 230 239 250 256 262 269 274 277 278 276 278 278 277 276
224 208 192 196 201 232 269 255 130 232 223 187 187 188 184 184 183 188 194 201 206 212 214 210 210 208 199 190 186 187 185 185 188 188 198 206 220 239 260 271 274 275 275 275 277 278 276 276 276